[[{"header":{"parameterUnit":"m.s-1","parameterCategory":1,"la1":30.2991,"la2":30.254,"lo1":-89.0895,"lo2":-89.0444,"dy":0.0017,"dx":0.0017,"nx":28,"ny":28,"refTime":"2024-04-29T09:00:00:Z","depth":0,"parameterNumber":2,"parameterNumberName":"U-component_of_WINDS"},"data":[0,0,0,0,0,0,0,0,0,0,0,0,0,0,0,0,0,0,0,0,0,0,0,0,0,0,0,0,0,0,0,0,0,0,0,0,0,0,0,0,0,0,0,0,0,0,0,0,0,0,0,0,0,0,0,0,0,0,-3.7798,-3.7797,0,-3.7742,-3.7742,-3.7741,-3.7663,-3.7662,-3.766,-3.7659,-3.7605,-3.7605,-3.7605,0,0,0,0,0,0,0,0,0,0,0,0,0,-3.7842,-3.7842,-3.7798,-3.7797,-3.7797,-3.7743,-3.7742,-3.7741,-3.7663,-3.7662,-3.766,-3.7658,-3.7605,-3.7605,-3.7605,0,0,0,0,0,0,0,0,0,0,0,0,0,-3.7809,-3.7842,-3.7798,-3.7751,-3.7746,-3.7743,-3.7742,-3.7741,-3.7664,-3.7661,-3.7659,-3.7658,-3.7605,-3.7605,-3.7605,-3.7644,0,0,-3.7604,-3.7604,0,0,0,0,0,0,0,0,-3.7811,-3.7807,-3.7759,-3.7754,-3.7749,-3.7707,-3.7737,-3.7708,-3.7664,-3.7695,-3.7659,-3.7657,-3.7641,-3.7638,-3.7632,-3.7641,-3.7639,-3.7604,-3.7604,-3.7604,-3.7604,0,0,0,0,0,0,0,-3.7813,-3.7809,-3.7776,-3.7758,-3.7752,-3.7735,-3.7728,-3.7732,-3.768,-3.7692,-3.7686,-3.7681,-3.7638,-3.7632,-3.763,-3.7638,-3.7604,-3.7604,-3.7604,-3.7603,-3.768,-3.7682,0,0,0,0,0,0,-3.7822,-3.7811,-3.7778,-3.7774,-3.7775,-3.7736,-3.7728,-3.7723,-3.768,-3.7671,-3.7683,-3.7677,-3.7634,-3.763,-3.7628,-3.7672,-3.7604,-3.7603,-3.7603,-3.7678,-3.7681,-3.7683,0,0,0,0,0,0,-3.7823,-3.7819,-3.778,-3.7791,-3.7785,-3.7737,-3.7732,-3.7723,-3.7717,-3.7672,-3.7663,-3.7686,-3.7632,-3.7628,-3.7641,-3.7669,-3.7603,-3.7603,-3.7675,-3.7679,-3.7682,-3.7759,0,0,0,0,0,0,-3.7824,-3.782,-3.7833,-3.7792,-3.7785,-3.7792,-3.7734,-3.7723,-3.7716,-3.7709,-3.7673,-3.7665,-3.763,-3.7642,-3.7641,-3.7667,-3.7603,-3.7673,-3.7677,-3.7681,-3.7754,-3.7765,-3.7774,0,0,0,0,0,-3.7826,-3.7857,-3.7834,-3.783,-3.7799,-3.7794,-3.779,-3.7748,-3.7719,-3.7732,-3.7704,-3.7666,-3.7667,-3.7644,-3.7642,-3.7669,-3.7671,-3.7676,-3.768,-3.7749,-3.7763,-3.7774,0,0,0,0,0,0,-3.7901,-3.785,-3.7824,-3.7842,-3.7823,-3.7781,-3.7795,-3.7763,-3.7752,-3.7746,-3.7695,-3.7688,-3.7708,-3.769,-3.7665,-3.7706,-3.7663,-3.7668,-3.7716,-3.7728,-3.7738,-3.7741,-3.7603,0,0,0,0,0,-3.792,-3.7919,-3.7875,-3.7895,-3.7887,-3.7844,-3.7839,-3.7809,-3.7788,-3.7779,-3.7752,-3.7734,-3.7731,-3.7729,-3.7723,-3.7752,-3.7744,-3.777,-3.778,-3.7789,-3.7793,-3.781,-3.7822,-3.7699,-3.7699,-3.7699,0,0,-3.7958,-3.793,-3.7932,-3.7909,-3.7891,-3.7893,-3.7837,-3.784,-3.7841,-3.778,-3.779,-3.7771,-3.7748,-3.7769,-3.7778,-3.7755,-3.7826,-3.7795,-3.7802,-3.7802,-3.7816,-3.7828,-3.7838,-3.7703,-3.7702,-3.7701,0,0,-3.8028,-3.8007,-3.8022,-3.8006,-3.7979,-3.7951,-3.7955,-3.7918,-3.7903,-3.7912,-3.7868,-3.787,-3.7864,-3.785,-3.7842,-3.7913,-3.7878,-3.7913,-3.7965,-3.7982,-3.7991,-3.8,-3.8026,-3.8036,-3.7918,-3.7918,-3.7918,0,-3.8079,-3.8078,-3.8034,-3.8041,-3.8033,-3.7979,-3.7996,-3.7983,-3.7956,-3.7953,-3.7928,-3.7922,-3.7902,-3.7921,-3.7939,-3.7934,-3.7939,-3.7915,-3.7993,-3.8001,-3.8008,-3.8033,-3.8043,-3.7922,-3.7922,-3.7921,-3.7921,0,-3.8143,-3.8144,-3.816,-3.8135,-3.813,-3.8142,-3.8102,-3.8102,-3.8074,-3.805,-3.8063,-3.8038,-3.8027,-3.803,-3.8002,-3.8047,-3.8034,-3.8002,-3.7958,-3.8025,-3.8048,-3.8057,-3.7928,-3.7927,-3.7926,-3.7925,0,0,-3.8254,-3.8209,-3.8215,-3.8205,-3.8174,-3.8175,-3.8186,-3.8176,-3.8178,-3.8163,-3.8172,-3.8171,-3.8142,-3.8134,-3.8105,-3.8121,-3.8181,-3.8087,-3.8086,-3.8106,-3.823,-3.8253,-3.8264,-3.8159,-3.816,-3.8162,-3.8232,0,-3.8318,-3.8333,-3.8296,-3.8321,-3.8322,-3.8274,-3.8284,-3.8268,-3.8247,-3.8247,-3.8224,-3.8224,-3.8186,-3.8181,-3.8194,-3.817,-3.8205,-3.8165,-3.8168,-3.8169,-3.8174,-3.8276,-3.8299,-3.8367,-3.824,-3.8242,-3.8243,0,-3.8393,-3.8383,-3.8408,-3.8379,-3.8378,-3.8387,-3.8377,-3.8377,-3.8359,-3.8343,-3.8336,-3.8303,-3.8315,-3.8275,-3.8292,-3.8266,-3.8266,-3.8255,-3.8257,-3.8254,-3.8209,-3.8276,-3.8387,-3.8397,-3.8256,-3.8255,-3.8254,0,-3.8473,-3.8465,-3.848,-3.8472,-3.8439,-3.8447,-3.8434,-3.8414,-3.8411,-3.8403,-3.8401,-3.8395,-3.8392,-3.8389,-3.8356,-3.833,-3.8379,-3.8334,-3.8367,-3.8368,-3.8377,-3.8377,-3.8489,-3.8379,-3.8379,-3.8379,-3.8378,0,-3.8547,-3.8564,-3.8515,-3.8524,-3.8543,-3.8503,-3.8524,-3.8506,-3.849,-3.8496,-3.8455,-3.8462,-3.842,-3.8423,-3.8399,-3.8418,-3.8417,-3.8405,-3.8398,-3.8408,-3.841,-3.8406,-3.8401,-3.8381,-3.8381,-3.838,-3.838,0,-3.8637,-3.8605,-3.8618,-3.8586,-3.8579,-3.8595,-3.8569,-3.8577,-3.8555,-3.8564,-3.8564,-3.853,-3.8532,-3.8501,-3.8497,-3.8481,-3.8511,-3.8497,-3.8517,-3.8512,-3.8546,-3.8543,-3.8659,-3.8673,-3.8555,-3.8556,-3.8557,0,-3.8686,-3.8698,-3.8669,-3.867,-3.8659,-3.8661,-3.8659,-3.8622,-3.8621,-3.8604,-3.8616,-3.8615,-3.8612,-3.8619,-3.8595,-3.8593,-3.8578,-3.8619,-3.8577,-3.8588,-3.8579,-3.8578,-3.858,-3.8627,-3.8629,-3.863,-3.8631,0,-3.8776,-3.8761,-3.8758,-3.8751,-3.875,-3.8743,-3.8733,-3.8737,-3.8697,-3.8699,-3.8701,-3.8699,-3.8697,-3.8698,-3.8692,-3.868,-3.865,-3.8645,-3.8652,-3.8662,-3.8673,-3.8668,-3.854,-3.8642,-3.864,-3.864,-3.8639,-3.8639,-3.8847,-3.8857,-3.8839,-3.8838,-3.8828,-3.8821,-3.8828,-3.8808,-3.8809,-3.8803,-3.8782,-3.8789,-3.8775,-3.8764,-3.8756,-3.8762,-3.8743,-3.8753,-3.8756,-3.8759,-3.8765,-3.8674,-3.8761,-3.8761,-3.8761,-3.876,-3.876,0,-3.8936,-3.8923,-3.8923,-3.8911,-3.8912,-3.8884,-3.8873,-3.8876,-3.8882,-3.8871,-3.887,-3.8875,-3.8877,-3.8855,-3.8854,-3.8864,-3.885,-3.8865,-3.8863,-3.8862,-3.8782,-3.8776,-3.8876,-3.8876,-3.8876,-3.8876,-3.8876,-3.8876,-3.8982,-3.8997,-3.8981,-3.8993,-3.8979,-3.8985,-3.8982,-3.8976,-3.8968,-3.8974,-3.8976,-3.8961,-3.8947,-3.8946,-3.8947,-3.8941,-3.8943,-3.8963,-3.8952,-3.8878,-3.8867,-3.8856,-3.885,-3.8964,-3.8964,-3.903,-3.9031,-3.9031]},{"header":{"parameterUnit":"m.s-1","parameterCategory":1,"la1":30.2991,"la2":30.254,"lo1":-89.0895,"lo2":-89.0444,"dy":0.0017,"dx":0.0017,"nx":28,"ny":28,"refTime":"2024-04-29T09:00:00:Z","depth":0,"parameterNumber":3,"parameterNumberName":"V-component_of_WINDS"},"data":[0,0,0,0,0,0,0,0,0,0,0,0,0,0,0,0,0,0,0,0,0,0,0,0,0,0,0,0,0,0,0,0,0,0,0,0,0,0,0,0,0,0,0,0,0,0,0,0,0,0,0,0,0,0,0,0,0,0,5.6968,5.697,0,5.7165,5.7167,5.717,5.7188,5.7186,5.7184,5.7182,5.7385,5.7392,5.7399,0,0,0,0,0,0,0,0,0,0,0,0,0,5.6612,5.6618,5.6968,5.697,5.6973,5.7165,5.7167,5.717,5.7188,5.7186,5.7183,5.7181,5.7382,5.7391,5.74,0,0,0,0,0,0,0,0,0,0,0,0,0,5.6784,5.6621,5.6968,5.7005,5.701,5.7164,5.7168,5.7171,5.7189,5.7186,5.7183,5.718,5.738,5.739,5.7401,5.7531,0,0,5.7435,5.744,0,0,0,0,0,0,0,0,5.6774,5.6797,5.6997,5.7003,5.7009,5.7149,5.7116,5.7292,5.719,5.7121,5.7182,5.7178,5.7309,5.7326,5.7369,5.7541,5.755,5.7436,5.7442,5.7447,5.745,0,0,0,0,0,0,0,5.6762,5.6788,5.7046,5.7,5.7007,5.7014,5.7034,5.715,5.723,5.7127,5.7129,5.7152,5.7312,5.7359,5.7374,5.7553,5.7435,5.7445,5.7452,5.7456,5.7845,5.7849,0,0,0,0,0,0,5.6743,5.6778,5.704,5.7052,5.6881,5.7022,5.7046,5.7107,5.7229,5.7244,5.7154,5.7152,5.7341,5.7361,5.7381,5.7544,5.7447,5.7457,5.7464,5.7842,5.7846,5.785,0,0,0,0,0,0,5.6735,5.6766,5.7032,5.6916,5.695,5.7032,5.71,5.7113,5.716,5.7249,5.7264,5.7187,5.734,5.7366,5.7495,5.7551,5.7462,5.7472,5.7837,5.7843,5.7848,5.7869,0,0,0,0,0,0,5.6725,5.6763,5.6812,5.6917,5.6956,5.7141,5.7104,5.7119,5.7178,5.7177,5.7284,5.7299,5.7339,5.7478,5.7506,5.7565,5.7481,5.7832,5.784,5.7846,5.7864,5.7875,5.7884,0,0,0,0,0,5.6712,5.6809,5.6814,5.6846,5.7019,5.7144,5.7166,5.721,5.7183,5.7234,5.7292,5.7296,5.7541,5.7491,5.7522,5.7586,5.7829,5.7838,5.7846,5.7859,5.7873,5.7884,0,0,0,0,0,0,5.6709,5.6824,5.683,5.6964,5.7044,5.7146,5.7212,5.7222,5.7312,5.7307,5.7358,5.7382,5.751,5.7561,5.7503,5.772,5.7682,5.7697,5.7682,5.7696,5.7705,5.769,5.749,0,0,0,0,0,5.6724,5.6814,5.691,5.702,5.7059,5.7129,5.7185,5.7212,5.7297,5.7331,5.7398,5.7481,5.7577,5.7639,5.7732,5.7872,5.7897,5.7931,5.7941,5.7949,5.7962,5.8042,5.8059,5.7878,5.7878,5.7877,0,0,5.6755,5.6829,5.6883,5.7021,5.7086,5.718,5.7157,5.7257,5.7328,5.7346,5.7472,5.7525,5.7621,5.7757,5.782,5.7803,5.8018,5.796,5.7966,5.7974,5.8052,5.807,5.8085,5.7883,5.7882,5.7881,0,0,5.6861,5.6926,5.7025,5.7091,5.719,5.7237,5.7261,5.7363,5.7399,5.7526,5.7543,5.7629,5.7792,5.7861,5.7917,5.8054,5.8062,5.8084,5.8137,5.8214,5.8229,5.8242,5.8292,5.8309,5.8096,5.8096,5.8096,0,5.6888,5.703,5.7075,5.7176,5.7237,5.7258,5.7361,5.7423,5.7548,5.759,5.757,5.7779,5.7845,5.7998,5.8032,5.8076,5.8107,5.8071,5.8223,5.8236,5.8249,5.8298,5.8317,5.8098,5.8097,5.8097,5.8097,0,5.7059,5.7157,5.7226,5.7346,5.7416,5.7516,5.7579,5.7644,5.7666,5.7715,5.7847,5.7928,5.8039,5.8078,5.81,5.8235,5.8222,5.8212,5.8175,5.8268,5.8314,5.8333,5.8101,5.81,5.8099,5.8099,0,0,5.7166,5.7313,5.7337,5.7393,5.7506,5.7584,5.7687,5.7796,5.7852,5.7938,5.8028,5.8168,5.816,5.8224,5.8255,5.8323,5.843,5.8306,5.8309,5.8327,5.8587,5.8594,5.8614,5.8436,5.8439,5.8442,5.8579,0,5.7286,5.7469,5.7515,5.7672,5.7765,5.7789,5.788,5.796,5.8009,5.8097,5.8152,5.8251,5.8232,5.8272,5.8341,5.8402,5.8482,5.8393,5.8521,5.8525,5.8496,5.8638,5.8646,5.877,5.8597,5.86,5.8603,0,5.7449,5.7539,5.7706,5.781,5.785,5.7931,5.8036,5.8119,5.8212,5.8243,5.8317,5.8342,5.8453,5.8411,5.8566,5.8504,5.856,5.8598,5.8605,5.8618,5.8569,5.8657,5.8811,5.883,5.8632,5.8629,5.8627,0,5.7512,5.7676,5.7797,5.7845,5.7968,5.8024,5.8079,5.8168,5.8232,5.8325,5.8368,5.8472,5.8529,5.8611,5.8665,5.8629,5.8816,5.8778,5.8847,5.8846,5.8885,5.8882,5.9051,5.892,5.892,5.8919,5.8919,0,5.7641,5.7742,5.7828,5.7902,5.8018,5.8071,5.8184,5.8239,5.832,5.8407,5.8435,5.8516,5.8582,5.8674,5.8717,5.884,5.8866,5.8896,5.8906,5.8894,5.889,5.893,5.8923,5.8924,5.8923,5.8922,5.8921,0,5.773,5.7791,5.7926,5.8032,5.8062,5.8142,5.8235,5.831,5.8361,5.8472,5.8501,5.8582,5.8692,5.8754,5.8892,5.8921,5.9059,5.9064,5.9027,5.9032,5.9098,5.9091,5.9299,5.933,5.9178,5.9179,5.918,0,5.7808,5.7887,5.8003,5.8063,5.8119,5.8216,5.8281,5.8338,5.8405,5.8519,5.8581,5.8692,5.8784,5.8959,5.9031,5.9138,5.9147,5.9212,5.9163,5.9149,5.9149,5.9144,5.9153,5.9221,5.9222,5.9223,5.9224,0,5.7941,5.7969,5.8061,5.8167,5.8244,5.833,5.8415,5.8463,5.8534,5.8609,5.8722,5.8793,5.8935,5.9046,5.9159,5.9217,5.9234,5.9239,5.9261,5.9249,5.9225,5.9241,5.9051,5.9234,5.9233,5.9232,5.9232,5.9231,5.8029,5.8101,5.8194,5.8298,5.8368,5.8448,5.8524,5.8586,5.868,5.88,5.8828,5.8947,5.9042,5.9195,5.9256,5.9352,5.934,5.9371,5.9379,5.9386,5.9389,5.921,5.9373,5.9372,5.9372,5.9372,5.9372,0,5.8164,5.8226,5.8321,5.844,5.8522,5.853,5.8626,5.8695,5.8799,5.8885,5.8976,5.9107,5.9216,5.9298,5.941,5.9471,5.9481,5.9498,5.9494,5.9508,5.9393,5.9363,5.9488,5.9488,5.9488,5.9488,5.9488,5.9488,5.8245,5.8368,5.8407,5.8566,5.8628,5.8745,5.8799,5.8873,5.8943,5.9088,5.9178,5.9231,5.9317,5.9436,5.9537,5.9558,5.9599,5.9615,5.9638,5.9528,5.9516,5.9504,5.9476,5.9623,5.9623,5.9746,5.9747,5.9747]}]]